Hourly Data Report for October 06, 2019

All times are specified in Local Standard Time (LST). Add 1 hour to adjust for Daylight Saving Time where and when it is observed.

CORAL HARBOUR A
NUNAVUT
Current Station Operator: NAVCAN

64°11'36.000" N
83°21'34.000" W
62.20 m
2301002
71915
YZS

Download Data

Hourly Data (October 2019)
Hourly Data Report for October 6, 2019
TIME Temp Definition
°C
Dew Point Definition
°C
Rel Hum Definition
%
Wind Dir Definition
10's deg

Wind Spd Definition
km/h
Visibility Definition
km
Stn Press Definition
kPa
Hmdx Definition


Wind Chill Definition


Weather Definition


00:00 1.6 1.6 100 19 9 0.2 98.88     Drizzle,Fog
01:00 1.5 1.5 100 19 7 0.2 98.80     Drizzle,Fog
02:00 1.4 1.4 100 19 7 0.2 98.78     Drizzle,Fog
03:00 1.5 1.5 100 20 12 0.4 98.73     Drizzle,Fog
04:00 1.4 1.4 100 20 4 3.2 98.71     Drizzle,Fog
05:00 1.6 1.6 100 18 8 1.2 98.66     Drizzle,Fog
06:00 1.7 1.7 100 19 8 0.4 98.65     Drizzle,Fog
07:00 1.6 1.6 100 18 4 0.2 98.61     Drizzle,Fog
08:00 1.5 1.5 100 6 5 0.2 98.57     Drizzle,Fog
09:00 1.5 1.5 100 6 9 0.2 98.57     Drizzle,Fog
10:00 1.8 1.7 100 7 8 0.8 98.55     Drizzle,Fog
11:00 2.4 2.4 100 9 8 1.6 98.55     Drizzle,Fog
12:00 2.5 2.5 100 6 12 0.4 98.53     Drizzle,Fog
13:00 2.6 2.6 100 6 11 9.7 98.53     Drizzle,Fog
14:00 2.7 2.7 100 6 10 19.3 98.52     Drizzle
15:00 2.6 2.6 100 5 13 16.1 98.50     Drizzle
16:00 2.2 2.1 99 7 13 19.3 98.49     Drizzle
17:00 2.0 1.6 98 6 9 24.1 98.51     Drizzle,Snow
18:00 1.8 1.0 94 5 16 24.1 98.50     Drizzle,Snow
19:00 1.7 0.5 92 4 23 24.1 98.49     Snow
20:00 1.5 0.4 92 5 15 24.1 98.49     Snow
21:00 1.5 0.0 90 4 26 24.1 98.47     Snow
22:00 1.6 0.0 90 4 28 24.1 98.44     Cloudy
23:00 1.4 0.0 90 4 23 24.1 98.44     Rain

Notes on Data Quality.

Legend

  • E = Estimated
  • M = Missing
  • NA = Not Available
Date modified: